Location: Asheville, NC
(35.6000°N, 82.5500°W)
Time: 07:42:55
(UTC-04:00)

XW-2D - Pass Details

Date: 12 February 2018
Orbit: 509 x 531 km, 97.5° (Epoch: 22 May)

Event Time Altitude Azimuth Distance (km) Brightness Sun altitude
Rises 06:35:48 0° 10° (N) 2,621 ? -9.6°
Reaches altitude 10° 06:37:53 10° 9° (N) 1,733 ? -9.2°
Maximum altitude 06:41:37 80° 283° (WNW) 524 ? -8.4°
Drops below altitude 10° 06:45:21 10° 196° (SSW) 1,730 ? -7.7°
Sets 06:47:26 0° 195° (SSW) 2,615 ? -7.3°
